When you browse on this site, cookies collect data to enhance your experience and personalize the content and advertising you see.
Visit our Privacy Policy to learn more. By continuing to use the site, you agree to this use of cookies and data.

Tiempo cada hora Wiktoria

Hoy, 12 Julio, Domingo

Tiempo Temperatura Precipitaciones Viento Presión Humedad
00:00 +7°C° 0 mm 2 mps 749 mmHg 94%
01:00 +7°C° 0 mm 2 mps 749 mmHg 94%
02:00 +7°C° 0.1 mm 2 mps 749 mmHg 94%
03:00 +8°C° 0.1 mm 1 mps 749 mmHg 94%
04:00 +9°C° 0 mm 1 mps 749 mmHg 96%
05:00 +9°C° 0.5 mm 1 mps 750 mmHg 96%
06:00 +9°C° 0.5 mm 1 mps 750 mmHg 96%
07:00 +8°C° 0.5 mm 2 mps 750 mmHg 96%
08:00 +8°C° 0.9 mm 2 mps 750 mmHg 94%
09:00 +8°C° 0.9 mm 2 mps 751 mmHg 92%
10:00 +9°C° 0.9 mm 3 mps 751 mmHg 91%
11:00 +10°C° 0.2 mm 3 mps 751 mmHg 86%
12:00 +11°C° 0.2 mm 3 mps 750 mmHg 82%
13:00 +12°C° 0.2 mm 3 mps 750 mmHg 77%
14:00 +12°C° 0.5 mm 3 mps 750 mmHg 79%
15:00 +12°C° 0.5 mm 3 mps 750 mmHg 81%
16:00 +12°C° 0.5 mm 3 mps 750 mmHg 83%
17:00 +11°C° 0 mm 3 mps 750 mmHg 85%
18:00 +9°C° 0 mm 3 mps 751 mmHg 87%
19:00 +8°C° 0 mm 3 mps 751 mmHg 90%
20:00 +8°C° 0 mm 3 mps 752 mmHg 90%
21:00 +7°C° 0 mm 3 mps 752 mmHg 90%
22:00 +7°C° 0 mm 3 mps 753 mmHg 90%
23:00 +7°C° 0 mm 3 mps 753 mmHg 90%

Mañana, 13 Julio, Lunes

Tiempo Temperatura Precipitaciones Viento Presión Humedad
00:00 +6°C° 0 mm 2 mps 752 mmHg 91%
01:00 +6°C° 0 mm 2 mps 752 mmHg 91%
02:00 +6°C° 0 mm 2 mps 752 mmHg 92%
03:00 +5°C° 0 mm 3 mps 753 mmHg 92%
04:00 +5°C° 0 mm 3 mps 753 mmHg 93%
05:00 +5°C° 0 mm 4 mps 753 mmHg 92%
06:00 +5°C° 0 mm 4 mps 753 mmHg 92%
07:00 +6°C° 0 mm 5 mps 754 mmHg 92%
08:00 +7°C° 0 mm 5 mps 754 mmHg 89%
09:00 +9°C° 0 mm 5 mps 754 mmHg 86%
10:00 +10°C° 0 mm 6 mps 755 mmHg 82%
11:00 +13°C° 0 mm 5 mps 754 mmHg 76%
12:00 +14°C° 0 mm 5 mps 754 mmHg 69%
13:00 +15°C° 0 mm 5 mps 754 mmHg 62%
14:00 +15°C° 0 mm 5 mps 754 mmHg 65%
15:00 +15°C° 0 mm 4 mps 754 mmHg 68%
16:00 +14°C° 0 mm 4 mps 754 mmHg 71%
17:00 +13°C° 0 mm 4 mps 755 mmHg 73%
18:00 +11°C° 0 mm 4 mps 755 mmHg 76%
19:00 +8°C° 0 mm 4 mps 756 mmHg 78%
20:00 +8°C° 0 mm 4 mps 756 mmHg 80%
21:00 +7°C° 0 mm 4 mps 756 mmHg 83%
22:00 +6°C° 0 mm 4 mps 757 mmHg 85%
23:00 +7°C° 0 mm 3 mps 757 mmHg 85%

Pasado mañana, 14 Julio, Martes

Tiempo Temperatura Precipitaciones Viento Presión Humedad
00:00 +7°C° 0 mm 3 mps 757 mmHg 85%
01:00 +7°C° 0 mm 3 mps 757 mmHg 86%
02:00 +7°C° 0 mm 3 mps 757 mmHg 88%
03:00 +7°C° 0 mm 3 mps 757 mmHg 90%
04:00 +7°C° 0 mm 3 mps 757 mmHg 92%
05:00 +5°C° 0 mm 4 mps 757 mmHg 92%
06:00 +5°C° 0 mm 4 mps 758 mmHg 92%
07:00 +5°C° 0 mm 4 mps 758 mmHg 92%
08:00 +7°C° 0 mm 4 mps 758 mmHg 88%
09:00 +8°C° 0 mm 4 mps 758 mmHg 83%
10:00 +10°C° 0 mm 4 mps 759 mmHg 78%
11:00 +12°C° 0 mm 4 mps 758 mmHg 73%
12:00 +13°C° 0 mm 4 mps 758 mmHg 68%
13:00 +14°C° 0 mm 4 mps 757 mmHg 63%
14:00 +14°C° 0 mm 3 mps 757 mmHg 65%
15:00 +14°C° 0 mm 3 mps 757 mmHg 67%
16:00 +15°C° 0 mm 2 mps 757 mmHg 70%
17:00 +13°C° 0 mm 2 mps 757 mmHg 73%
18:00 +10°C° 0 mm 3 mps 758 mmHg 76%
19:00 +8°C° 0 mm 3 mps 758 mmHg 80%
20:00 +8°C° 0 mm 3 mps 758 mmHg 82%
21:00 +7°C° 0 mm 3 mps 758 mmHg 84%
22:00 +7°C° 0 mm 3 mps 758 mmHg 86%
23:00 +5°C° 0 mm 3 mps 758 mmHg 87%

15 Julio, Miércoles

Tiempo Temperatura Precipitaciones Viento Presión Humedad
00:00 +6°C° 0 mm 2 mps 758 mmHg 88%
01:00 +5°C° 0 mm 2 mps 757 mmHg 89%
02:00 +5°C° 0 mm 2 mps 757 mmHg 90%
03:00 +5°C° 0 mm 2 mps 757 mmHg 90%
04:00 +4°C° 0 mm 2 mps 757 mmHg 91%
05:00 +4°C° 0 mm 2 mps 757 mmHg 91%
06:00 +4°C° 0 mm 2 mps 757 mmHg 91%
07:00 +3°C° 0 mm 2 mps 757 mmHg 91%
08:00 +6°C° 0 mm 1 mps 757 mmHg 85%
09:00 +8°C° 0 mm 1 mps 757 mmHg 80%
10:00 +10°C° 0 mm 1 mps 757 mmHg 74%
11:00 +11°C° 0 mm 1 mps 756 mmHg 70%
12:00 +12°C° 0 mm 1 mps 756 mmHg 66%
13:00 +13°C° 0 mm 1 mps 755 mmHg 62%
14:00 +13°C° 0 mm 1 mps 755 mmHg 65%
15:00 +13°C° 0 mm 2 mps 755 mmHg 67%
16:00 +13°C° 0 mm 2 mps 755 mmHg 69%
17:00 +10°C° 0 mm 2 mps 755 mmHg 74%
18:00 +8°C° 0 mm 2 mps 756 mmHg 79%
19:00 +7°C° 0 mm 2 mps 756 mmHg 84%
20:00 +6°C° 0 mm 2 mps 756 mmHg 86%
21:00 +7°C° 0 mm 1 mps 756 mmHg 87%
22:00 +6°C° 0 mm 1 mps 756 mmHg 88%
23:00 +6°C° 0 mm 1 mps 756 mmHg 89%

16 Julio, Jueves

Tiempo Temperatura Precipitaciones Viento Presión Humedad
00:00 +5°C° 0 mm 1 mps 756 mmHg 90%
01:00 +5°C° 0 mm 1 mps 756 mmHg 90%
02:00 +5°C° 0 mm 1 mps 756 mmHg 90%
03:00 +4°C° 0 mm 1 mps 756 mmHg 91%
04:00 +4°C° 0 mm 1 mps 756 mmHg 91%
05:00 +4°C° 0 mm 1 mps 756 mmHg 91%
06:00 +3°C° 0 mm 1 mps 756 mmHg 91%
07:00 +3°C° 0 mm 1 mps 756 mmHg 91%
08:00 +5°C° 0 mm 1 mps 757 mmHg 86%
09:00 +5°C° 0 mm 0 mps 757 mmHg 80%
10:00 +7°C° 0 mm 0 mps 757 mmHg 75%
11:00 +10°C° 0 mm 1 mps 756 mmHg 71%
12:00 +11°C° 0 mm 1 mps 756 mmHg 67%
13:00 +12°C° 0 mm 1 mps 756 mmHg 63%
14:00 +12°C° 0 mm 1 mps 756 mmHg 65%
15:00 +12°C° 0 mm 1 mps 755 mmHg 67%
16:00 +12°C° 0 mm 1 mps 755 mmHg 69%
17:00 +11°C° 0 mm 1 mps 756 mmHg 75%
18:00 +9°C° 0 mm 1 mps 756 mmHg 80%
19:00 +6°C° 0 mm 2 mps 757 mmHg 86%
20:00 +6°C° 0 mm 1 mps 757 mmHg 87%
21:00 +6°C° 0 mm 1 mps 757 mmHg 89%
22:00 +5°C° 0 mm 1 mps 757 mmHg 90%
23:00 +5°C° 0 mm 1 mps 757 mmHg 90%

17 Julio, Viernes

Tiempo Temperatura Precipitaciones Viento Presión Humedad
00:00 +4°C° 0 mm 2 mps 757 mmHg 91%
01:00 +3°C° 0 mm 2 mps 757 mmHg 91%
02:00 +3°C° 0 mm 2 mps 757 mmHg 91%
03:00 +4°C° 0 mm 1 mps 756 mmHg 92%
04:00 +3°C° 0 mm 1 mps 756 mmHg 92%
05:00 +3°C° 0 mm 1 mps 757 mmHg 92%
06:00 +3°C° 0 mm 1 mps 757 mmHg 92%
07:00 +2°C° 0 mm 1 mps 757 mmHg 92%
08:00 +3°C° 0 mm 2 mps 757 mmHg 88%
09:00 +5°C° 0 mm 2 mps 757 mmHg 84%
10:00 +7°C° 0 mm 2 mps 757 mmHg 79%
11:00 +8°C° 0 mm 2 mps 757 mmHg 76%
12:00 +9°C° 0 mm 2 mps 756 mmHg 72%
13:00 +12°C° 0 mm 2 mps 756 mmHg 68%
14:00 +12°C° 0 mm 2 mps 756 mmHg 69%
15:00 +12°C° 0 mm 1 mps 755 mmHg 70%
16:00 +12°C° 0 mm 1 mps 755 mmHg 70%
17:00 +10°C° 0 mm 1 mps 755 mmHg 76%
18:00 +9°C° 0 mm 1 mps 756 mmHg 81%
19:00 +7°C° 0 mm 1 mps 756 mmHg 87%
20:00 +6°C° 0 mm 1 mps 756 mmHg 88%
21:00 +5°C° 0 mm 2 mps 756 mmHg 90%
22:00 +5°C° 0 mm 2 mps 756 mmHg 91%
23:00 +4°C° 0 mm 2 mps 756 mmHg 92%
Mostrar más